Waseca, MN

1:28 AM CST on November 21, 2017 (GMT -0600)
Waseca Municipal

Weather History for KACQ - September, 2012

Change the Weather History Date:

Tuesday, September 4, 2012

  Actual Average Record
Temperature  
Mean Temperature 77 °F -  
Max Temperature 95 °F 76 °F 99 °F (1925)
Min Temperature 59 °F 52 °F 35 °F (1974)
Cooling Degree Days 12    
Growing Degree Days 27 (Base 50)    
Moisture  
Dew Point 57 °F    
Average Humidity 56    
Maximum Humidity 88    
Minimum Humidity 17    
Precipitation  
Precipitation 0.00 in - - ()
Sea Level Pressure  
Sea Level Pressure 29.86 in    
Wind  
Wind Speed 4 mph (SW)    
Max Wind Speed 29 mph    
Max Gust Speed 45 mph    
Visibility 9 miles    
Events Rain , Thunderstorm    
Averages and records for this station are not official NWS values.
T = Trace of Precipitation, MM = Missing Value Source: NWS Daily Summary

Daily Weather History Graph

Daily Weather History Graph

Search for Another Location

Airport or City:

Trip Planner

Search our weather history database for the weather conditions in past years. The results will help you decide how hot, cold, wet, or windy it might be!

Date:

Astronomy

Sep. 04, 2012 Rise Set
Actual Time 6:41 AM CDT 7:43 PM CDT
Civil Twilight 6:11 AM CDT 8:13 PM CDT
Nautical Twilight 5:36 AM CDT 8:48 PM CDT
Astronomical Twilight 4:59 AM CDT 9:25 PM CDT
Moon 9:25 PM CDT (9/4) 11:00 AM CDT (9/4)
Length of Visible Light 14h 01m
Length of Day
13h 02m
Waning Gibbous, 83% of the Moon is Illuminated
Sep 4
Waning Gibbous
Sep 8
Last Quarter
Sep 15
New
Sep 22
First Quarter
Sep 29
Full

Hourly Weather History & Observations

Time (CDT) Temp. Heat Index Dew Point Humidity Pressure Visibility Wind Dir Wind Speed Gust Speed Precip Events Conditions
12:12 AM 64.4 °F - 60.8 °F 88% 29.93 in 4.0 mi Calm Calm - N/A   Clear
12:33 AM 66.2 °F - 60.8 °F 83% 29.93 in 1.8 mi South 3.5 mph - N/A   Haze
12:53 AM 66.2 °F - 62.6 °F 88% 29.94 in 5.0 mi South 3.5 mph - N/A   Clear
1:13 AM 68.0 °F - 62.6 °F 83% 29.94 in 5.0 mi Calm Calm - N/A   Haze
1:32 AM 66.2 °F - 60.8 °F 83% 29.93 in 7.0 mi Calm Calm - N/A   Clear
1:53 AM 64.4 °F - 60.8 °F 88% 29.93 in 7.0 mi SE 3.5 mph - N/A   Clear
2:12 AM 64.4 °F - 60.8 °F 88% 29.93 in 5.0 mi SSE 3.5 mph - N/A   Haze
2:33 AM 66.2 °F - 60.8 °F 83% 29.91 in 7.0 mi SE 6.9 mph - N/A   Clear
2:53 AM 68.0 °F - 62.6 °F 83% 29.89 in 7.0 mi SE 8.1 mph - N/A   Clear
3:12 AM 68.0 °F - 62.6 °F 83% 29.89 in 10.0 mi Calm Calm - N/A   Clear
3:33 AM 64.4 °F - 60.8 °F 88% 29.89 in 7.0 mi East 3.5 mph - N/A   Clear
3:53 AM 64.4 °F - 60.8 °F 88% 29.88 in 7.0 mi East 5.8 mph - N/A   Clear
4:13 AM 64.4 °F - 60.8 °F 88% 29.86 in 7.0 mi East 5.8 mph - N/A   Clear
4:53 AM 64.4 °F - 60.8 °F 88% 29.87 in 10.0 mi SSE 6.9 mph - N/A   Clear
5:13 AM 64.4 °F - 59.0 °F 83% 29.88 in 7.0 mi Calm Calm - N/A   Clear
5:33 AM 64.4 °F - 59.0 °F 83% 29.88 in 10.0 mi Calm Calm - N/A   Clear
5:52 AM 64.4 °F - 59.0 °F 83% 29.89 in 7.0 mi Calm Calm - N/A   Clear
6:13 AM 64.4 °F - 59.0 °F 83% 29.89 in 7.0 mi Calm Calm - N/A   Clear
6:33 AM 64.4 °F - 59.0 °F 83% 29.89 in 7.0 mi Calm Calm - N/A   Clear
6:53 AM 62.6 °F - 57.2 °F 82% 29.89 in 5.0 mi Calm Calm - N/A   Haze
7:13 AM 59.0 °F - 53.6 °F 82% 29.89 in 4.0 mi Calm Calm - N/A   Haze
7:33 AM 64.4 °F - 60.8 °F 88% 29.89 in 4.0 mi SE 3.5 mph - N/A   Clear
7:52 AM 64.4 °F - 60.8 °F 88% 29.89 in 7.0 mi Calm Calm - N/A   Clear
8:13 AM 68.0 °F - 62.6 °F 83% 29.89 in 10.0 mi SSE 3.5 mph - N/A   Clear
8:33 AM 73.4 °F - 64.4 °F 73% 29.89 in 10.0 mi South 4.6 mph - N/A   Clear
8:53 AM 73.4 °F - 62.6 °F 69% 29.89 in 10.0 mi South 3.5 mph - N/A   Clear
9:13 AM 77.0 °F - 62.6 °F 61% 29.89 in 10.0 mi SSW 8.1 mph - N/A   Clear
9:33 AM 80.6 °F 82.3 °F 64.4 °F 58% 29.89 in 10.0 mi SW 6.9 mph - N/A   Clear
9:53 AM 80.6 °F 82.3 °F 64.4 °F 58% 29.90 in 10.0 mi SW 9.2 mph - N/A   Clear
10:13 AM 82.4 °F 83.9 °F 64.4 °F 54% 29.90 in 10.0 mi South 8.1 mph - N/A   Clear
10:33 AM 82.4 °F 83.9 °F 64.4 °F 54% 29.90 in 10.0 mi SSW 6.9 mph - N/A   Clear
10:53 AM 86.0 °F 88.2 °F 66.2 °F 51% 29.89 in 10.0 mi SSW 10.4 mph - N/A   Clear
11:13 AM 86.0 °F 88.2 °F 66.2 °F 51% 29.89 in 10.0 mi SW 8.1 mph - N/A   Clear
11:33 AM 86.0 °F 87.3 °F 64.4 °F 48% 29.88 in 10.0 mi WSW 3.5 mph - N/A   Clear
11:53 AM 86.0 °F 86.6 °F 62.6 °F 45% 29.88 in 10.0 mi WSW 4.6 mph - N/A   Clear
12:13 PM 86.0 °F 86.6 °F 62.6 °F 45% 29.88 in 10.0 mi SW 9.2 mph - N/A   Clear
12:33 PM 87.8 °F 88.5 °F 62.6 °F 43% 29.87 in 10.0 mi SW 8.1 mph - N/A   Clear
12:53 PM 87.8 °F 88.5 °F 62.6 °F 43% 29.86 in 10.0 mi SW 4.6 mph - N/A   Clear
1:13 PM 87.8 °F 88.5 °F 62.6 °F 43% 29.86 in 10.0 mi Calm Calm - N/A   Clear
1:32 PM 87.8 °F 88.5 °F 62.6 °F 43% 29.85 in 10.0 mi WNW 4.6 mph - N/A   Scattered Clouds
1:53 PM 87.8 °F 87.6 °F 60.8 °F 40% 29.85 in 10.0 mi West 9.2 mph - N/A   Scattered Clouds
2:13 PM 89.6 °F 89.5 °F 60.8 °F 38% 29.84 in 10.0 mi SW 5.8 mph - N/A   Scattered Clouds
2:33 PM 91.4 °F 91.4 °F 60.8 °F 36% 29.84 in 10.0 mi West 3.5 mph - N/A   Clear
2:52 PM 89.6 °F 88.9 °F 59.0 °F 36% 29.84 in 10.0 mi WSW 9.2 mph - N/A   Clear
3:13 PM 93.2 °F 92.6 °F 59.0 °F 32% 29.84 in 10.0 mi SW 9.2 mph 16.1 mph N/A   Clear
3:33 PM 91.4 °F 89.9 °F 57.2 °F 31% 29.83 in 10.0 mi WSW 4.6 mph - N/A   Clear
3:53 PM 95.0 °F 93.7 °F 57.2 °F 28% 29.83 in 10.0 mi SSW 8.1 mph - N/A   Clear
4:13 PM 95.0 °F - 51.8 °F 23% 29.82 in 10.0 mi West 8.1 mph - N/A Thunderstorm Clear
4:33 PM 91.4 °F - 44.6 °F 20% 29.81 in 10.0 mi WNW 3.5 mph - N/A   Clear
4:53 PM 91.4 °F - 42.8 °F 18% 29.81 in 10.0 mi NNW 6.9 mph - N/A   Clear
5:13 PM 91.4 °F - 42.8 °F 18% 29.81 in 10.0 mi NW 4.6 mph - N/A   Clear
5:33 PM 91.4 °F - 41.0 °F 17% 29.80 in 10.0 mi NW 5.8 mph - N/A   Clear
5:53 PM 89.6 °F - 41.0 °F 18% 29.80 in 10.0 mi NW 5.8 mph - N/A   Clear
6:13 PM 87.8 °F - 41.0 °F 19% 29.80 in 10.0 mi NW 3.5 mph - N/A   Clear
6:33 PM 86.0 °F - 42.8 °F 22% 29.80 in 10.0 mi North 6.9 mph - N/A   Clear
6:53 PM 82.4 °F - 42.8 °F 25% 29.80 in 10.0 mi North 5.8 mph - N/A   Clear
7:13 PM 80.6 °F - 46.4 °F 30% 29.80 in 10.0 mi North 5.8 mph - N/A   Clear
7:33 PM 77.0 °F - 50.0 °F 39% 29.80 in 10.0 mi North 6.9 mph - N/A   Clear
7:52 PM 73.4 °F - 48.2 °F 41% 29.80 in 10.0 mi NNE 6.9 mph - N/A   Clear
8:13 PM 73.4 °F - 50.0 °F 44% 29.79 in 10.0 mi NNE 8.1 mph - N/A   Clear
8:33 PM 73.4 °F - 51.8 °F 47% 29.79 in 10.0 mi NE 5.8 mph - N/A   Clear
8:53 PM 73.4 °F - 51.8 °F 47% 29.80 in 10.0 mi ENE 5.8 mph - N/A   Clear
9:13 PM 68.0 °F - 50.0 °F 52% 29.80 in 10.0 mi ENE 3.5 mph - N/A   Clear
9:33 PM 69.8 °F - 51.8 °F 53% 29.78 in 10.0 mi ENE 8.1 mph - N/A   Clear
10:13 PM 73.4 °F - 53.6 °F 50% 29.79 in 10.0 mi NE 8.1 mph - N/A   Clear
10:33 PM 73.4 °F - 51.8 °F 47% 29.78 in 10.0 mi ENE 9.2 mph - N/A   Clear
10:53 PM 73.4 °F - 50.0 °F 44% 29.78 in 10.0 mi ENE 10.4 mph - N/A   Clear
11:12 PM 73.4 °F - 53.6 °F 50% 29.77 in 10.0 mi East 10.4 mph - N/A Thunderstorm Scattered Clouds
11:33 PM 71.6 °F - 53.6 °F 53% 29.78 in 10.0 mi East 5.8 mph - N/A   Mostly Cloudy
11:53 PM 73.4 °F - 55.4 °F 53% 29.89 in 10.0 mi West 28.8 mph 44.9 mph N/A Rain , Thunderstorm Thunderstorms and Rain